Weather History for Rotterdam, Netherlands

Change the Weather History Date:

Saturday, May 18, 2013

  Actual Average Record
Temperature  
Mean Temperature 48 °F -  
Max Temperature 54 °F 64 °F 73 °F (1998)
Min Temperature 41 °F 49 °F 33 °F (2005)
Degree Days  
Heating Degree Days 17    
Moisture  
Dew Point 46 °F    
Average Humidity 87    
Maximum Humidity 100    
Minimum Humidity 60    
Precipitation  
Precipitation 0.00 in - - ()
Sea Level Pressure  
Sea Level Pressure 29.75 in    
Wind  
Wind Speed 6 mph ()    
Max Wind Speed 10 mph    
Max Gust Speed -    
Visibility 6.8 miles    
Events      
Averages and records for this station are not official NWS values.
T = Trace of Precipitation, MM = Missing Value Source: Averaged Metar Reports

Daily Weather History Graph

Daily Weather History Graph

Search for Another Location

Airport:

Trip Planner

Search our weather history database for the weather conditions in past years. The results will help you decide how hot, cold, wet, or windy it might be!

Date:

Astronomy

May. 18, 2013 Rise Set
Actual Time 5:44 AM CEST 9:34 PM CEST
Civil Twilight 5:01 AM CEST 10:17 PM CEST
Nautical Twilight 4:01 AM CEST 11:17 PM CEST
Astronomical Twilight 2:17 AM CEST 1:08 AM CEST
Moon 1:29 PM CEST (5/18) 2:23 AM CEST (5/18)
Length of Visible Light 17h 16m
Length of Day
15h 50m
First Quarter, 52% of the Moon is Illuminated
May 18
First Quarter
May 25
Full
May 31
Last Quarter
Jun 8
New
Jun 16
First Quarter

Hourly Weather History & Observations

Time (CEST) Temp. Windchill Dew Point Humidity Pressure Visibility Wind Dir Wind Speed Gust Speed Precip Events Conditions
12:25 AM 46.4 °F 43.5 °F 46.4 °F 100% 29.71 in 6.2 mi West 5.8 mph - N/A   Overcast
12:55 AM 46.4 °F 43.5 °F 46.4 °F 100% 29.71 in 6.2 mi West 5.8 mph - N/A   Overcast
1:25 AM 46.4 °F 44.3 °F 46.4 °F 100% 29.71 in 6.2 mi West 4.6 mph - N/A   Overcast
1:55 AM 46.4 °F 42.9 °F 46.4 °F 100% 29.71 in 6.2 mi West 6.9 mph - N/A   Overcast
2:00 AM 47 °F - 46 °F 92% 29.71 in 8 mi West 6.7 mph - -   Partly Cloudy
2:25 AM 46.4 °F 42.4 °F 46.4 °F 100% 29.68 in 6.2 mi West 8.1 mph - N/A   Overcast
2:55 AM 46.4 °F 42.4 °F 44.6 °F 93% 29.68 in 6.2 mi West 8.1 mph - N/A   Overcast
3:25 AM 46.4 °F 42.9 °F 44.6 °F 93% 29.71 in 6.2 mi West 6.9 mph - N/A   Overcast
3:55 AM 46.4 °F 43.5 °F 44.6 °F 93% 29.71 in 6.2 mi WNW 5.8 mph - N/A   Overcast
4:25 AM 46.4 °F 42.9 °F 44.6 °F 93% 29.71 in 6.2 mi West 6.9 mph - N/A   Overcast
4:55 AM 46.4 °F 42.9 °F 44.6 °F 93% 29.71 in 6.2 mi West 6.9 mph - N/A   Mostly Cloudy
5:00 AM 47 °F - 45 °F 92% 29.72 in 9 mi West 6.7 mph - -   Overcast
5:25 AM 46.4 °F 43.5 °F 44.6 °F 93% 29.71 in 6.2 mi West 5.8 mph - N/A   Mostly Cloudy
5:55 AM 46.4 °F 42.9 °F 46.4 °F 100% 29.71 in 6.2 mi WSW 6.9 mph - N/A   Overcast
6:25 AM 46.4 °F 42.9 °F 46.4 °F 100% 29.71 in 6.2 mi WSW 6.9 mph - N/A   Overcast
6:55 AM 46.4 °F 42.4 °F 46.4 °F 100% 29.71 in 6.2 mi WSW 8.1 mph - N/A   Mostly Cloudy
7:25 AM 48.2 °F - 46.4 °F 93% 29.71 in 6.2 mi WSW 9.2 mph - N/A   Overcast
7:55 AM 48.2 °F - 46.4 °F 93% 29.71 in 6.2 mi WSW 8.1 mph - N/A   Overcast
8:00 AM 48 °F - 46 °F 91% 29.73 in 17 mi WSW 6.7 mph - -   Partly Cloudy
8:25 AM 48.2 °F - 46.4 °F 93% 29.71 in 6.2 mi WSW 9.2 mph - N/A   Overcast
8:55 AM 48.2 °F - 46.4 °F 93% 29.74 in 6.2 mi WSW 9.2 mph - N/A   Overcast
9:25 AM 50.0 °F - 46.4 °F 87% 29.74 in 6.2 mi WSW 6.9 mph - N/A   Overcast
9:55 AM 48.2 °F - 46.4 °F 93% 29.74 in 6.2 mi WSW 8.1 mph - N/A   Overcast
10:25 AM 50.0 °F - 46.4 °F 87% 29.74 in 6.2 mi WSW 8.1 mph - N/A   Overcast
10:55 AM 51.8 °F - 46.4 °F 82% 29.74 in 6.2 mi WSW 8.1 mph - N/A   Overcast
11:00 AM 51 °F - 46 °F 78% 29.75 in 19 mi WSW 8.9 mph - -   Partly Cloudy
11:25 AM 50.0 °F - 46.4 °F 87% 29.74 in 6.2 mi WSW 9.2 mph - N/A   Overcast
11:55 AM 50.0 °F - 46.4 °F 87% 29.74 in 6.2 mi WSW 10.4 mph - N/A   Overcast
12:25 PM 51.8 °F - 46.4 °F 82% 29.77 in 6.2 mi WSW 8.1 mph - N/A   Overcast
12:55 PM 50.0 °F - 46.4 °F 87% 29.77 in 6.2 mi WSW 9.2 mph - N/A   Overcast
1:25 PM 51.8 °F - 46.4 °F 82% 29.77 in 6.2 mi WSW 4.6 mph - N/A   Overcast
1:55 PM 51.8 °F - 46.4 °F 82% 29.77 in 6.2 mi WSW 6.9 mph - N/A   Overcast
2:00 PM 52 °F - 45 °F 71% 29.78 in 11 mi WSW 8.9 mph - -   Partly Cloudy
2:25 PM 51.8 °F - 46.4 °F 82% 29.77 in 6.2 mi WSW 9.2 mph - N/A   Overcast
2:55 PM 51.8 °F - 46.4 °F 82% 29.77 in 6.2 mi WSW 5.8 mph - N/A   Overcast
3:25 PM 53.6 °F - 46.4 °F 77% 29.77 in 6.2 mi WSW 4.6 mph - N/A   Overcast
3:55 PM 53.6 °F - 46.4 °F 77% 29.77 in 6.2 mi SW 5.8 mph - N/A   Overcast
4:25 PM 53.6 °F - 46.4 °F 77% 29.77 in 6.2 mi West 5.8 mph - N/A   Overcast
4:55 PM 53.6 °F - 46.4 °F 77% 29.77 in 6.2 mi WNW 3.5 mph - N/A   Overcast
5:00 PM 54 °F - 46 °F 68% 29.79 in 14 mi SW 2.2 mph - -   Overcast
5:25 PM 53.6 °F - 46.4 °F 77% 29.77 in 6.2 mi South 3.5 mph - N/A   Overcast
5:55 PM 53.6 °F - 46.4 °F 77% 29.77 in 6.2 mi South 8.1 mph - N/A   Overcast
6:25 PM 53.6 °F - 46.4 °F 77% 29.80 in 6.2 mi South 5.8 mph - N/A   Overcast
6:55 PM 53.6 °F - 46.4 °F 77% 29.77 in 6.2 mi SSE 4.6 mph - N/A   Overcast
7:25 PM 53.6 °F - 44.6 °F 72% 29.80 in 6.2 mi South 8.1 mph - N/A   Overcast
7:55 PM 53.6 °F - 44.6 °F 72% 29.80 in 6.2 mi SSE 5.8 mph - N/A   Overcast
8:00 PM 54 °F - 44 °F 60% 29.81 in 10 mi SSE 4.5 mph - -   Partly Cloudy
8:25 PM 53.6 °F - 44.6 °F 72% 29.80 in 6.2 mi SSE 3.5 mph - N/A   Unknown
8:55 PM 53.6 °F - 44.6 °F 72% 29.80 in 6.2 mi Variable 2.3 mph - N/A   Overcast
9:25 PM 51.8 °F - 44.6 °F 76% 29.80 in 6.2 mi East 3.5 mph - N/A   Overcast
9:55 PM 48.2 °F - 44.6 °F 87% 29.83 in 6.2 mi East 3.5 mph - N/A   Mostly Cloudy
10:25 PM 44.6 °F - 42.8 °F 93% 29.83 in 5.0 mi ENE 2.3 mph - N/A   Partly Cloudy
10:55 PM 44.6 °F - 42.8 °F 93% 29.83 in 3.7 mi East 1.2 mph - N/A   Unknown
11:00 PM 45 °F - 45 °F 98% 29.84 in 3 mi Calm Calm - -   Mist
11:25 PM 42.8 °F 41.1 °F 42.8 °F 100% 29.83 in 3.1 mi ENE 3.5 mph - N/A   Mist
11:55 PM 41.0 °F - 41.0 °F 100% 29.83 in - NNE 1.2 mph - N/A   Mist